| time (UTC) | temp C | wind direction | speed KPH | gust KPH | rain 1hr cm | rain 24hr cm | rain mn cm | humidity % | barometer mb |
| 20260502151504 | 20 | 110 | 1.6 | 8.0 | 0.00 | 0.00 | 0.00 | 52 | 1013.3 |
| 20260502151004 | 20 | 226 | 1.6 | 8.0 | 0.00 | 0.00 | 0.00 | 53 | 1013.2 |
| 20260502150504 | 20 | 229 | 1.6 | 6.4 | 0.00 | 0.00 | 0.00 | 54 | 1013.2 |
| 20260502130524 | 19 | 177 | 3.2 | 11.3 | 0.00 | 0.00 | 0.00 | 52 | 1014.0 |
| 20260502123504 | 18 | 85 | 1.6 | 12.9 | 0.00 | 0.00 | 0.00 | 55 | 1014.4 |
| 20260502123024 | 18 | 64 | 1.6 | 8.0 | 0.00 | 0.00 | 0.00 | 55 | 1014.4 |
| 20260502122504 | 19 | 77 | 1.6 | 8.0 | 0.00 | 0.00 | 0.00 | 55 | 1014.4 |
| 20260502122003 | 19 | 108 | 1.6 | 11.3 | 0.00 | 0.00 | 0.00 | 55 | 1014.4 |
| 20260502121504 | 20 | 143 | 1.6 | 11.3 | 0.00 | 0.00 | 0.00 | 53 | 1014.4 |
| 20260502121005 | 20 | 123 | 3.2 | 11.3 | 0.00 | 0.00 | 0.00 | 52 | 1014.5 |
| 20260502120503 | 20 | 109 | 3.2 | 11.3 | 0.00 | 0.00 | 0.00 | 52 | 1014.4 |
| 20260502115504 | 20 | 73 | 3.2 | 16.1 | 0.00 | 0.00 | 0.00 | 55 | 1014.4 |
| 20260502115004 | 20 | 71 | 1.6 | 16.1 | 0.00 | 0.00 | 0.00 | 55 | 1014.4 |
| 20260502114525 | 20 | 92 | 3.2 | 16.1 | 0.00 | 0.00 | 0.00 | 53 | 1014.3 |
| 20260502114004 | 20 | 80 | 4.8 | 16.1 | 0.00 | 0.00 | 0.00 | 56 | 1014.4 |
| 20260502113503 | 20 | 57 | 4.8 | 12.9 | 0.00 | 0.00 | 0.00 | 55 | 1014.4 |
| 20260502113003 | 19 | 153 | 4.8 | 17.7 | 0.00 | 0.00 | 0.00 | 59 | 1014.5 |
| 20260502112503 | 19 | 217 | 6.4 | 17.7 | 0.00 | 0.00 | 0.00 | 56 | 1014.6 |
| 20260502112004 | 19 | 212 | 6.4 | 17.7 | 0.00 | 0.00 | 0.00 | 58 | 1014.6 |
| 20260502111503 | 18 | 211 | 4.8 | 17.7 | 0.00 | 0.00 | 0.00 | 58 | 1014.5 |
| 20260502111003 | 18 | 221 | 4.8 | 16.1 | 0.00 | 0.00 | 0.00 | 59 | 1014.7 |
| 20260502110525 | 18 | 237 | 4.8 | 12.9 | 0.00 | 0.00 | 0.00 | 59 | 1014.8 |
| 20260502110003 | 18 | 197 | 4.8 | 12.9 | 0.00 | 0.00 | 0.00 | 58 | 1014.7 |
| 20260502105503 | 18 | 187 | 3.2 | 11.3 | 0.00 | 0.00 | 0.00 | 58 | 1014.7 |
| 20260502105004 | 18 | 205 | 1.6 | 12.9 | 0.00 | 0.00 | 0.00 | 58 | 1014.7 |
| 20260502104504 | 18 | 237 | 3.2 | 12.9 | 0.00 | 0.00 | 0.00 | 59 | 1014.7 |
| 20260502104003 | 18 | 250 | 3.2 | 12.9 | 0.00 | 0.00 | 0.00 | 60 | 1014.7 |
| 20260502103503 | 18 | 208 | 3.2 | 12.9 | 0.00 | 0.00 | 0.00 | 61 | 1014.7 |
| 20260502103003 | 18 | 177 | 1.6 | 11.3 | 0.00 | 0.00 | 0.00 | 61 | 1014.7 |
| 20260502102505 | 18 | 113 | 1.6 | 17.7 | 0.00 | 0.00 | 0.00 | 59 | 1014.7 |
| 20260502102024 | 18 | 104 | 3.2 | 17.7 | 0.00 | 0.00 | 0.00 | 59 | 1014.7 |
| 20260502101504 | 18 | 178 | 3.2 | 17.7 | 0.00 | 0.00 | 0.00 | 60 | 1014.8 |
| 20260502101004 | 18 | 186 | 3.2 | 17.7 | 0.00 | 0.00 | 0.00 | 59 | 1014.8 |
| 20260502100504 | 18 | 130 | 3.2 | 11.3 | 0.00 | 0.00 | 0.00 | 62 | 1014.9 |
| 20260502091503 | 17 | 193 | 3.2 | 12.9 | 0.00 | 0.00 | 0.00 | 68 | 1015.3 |
| 20260502091004 | 16 | 212 | 4.8 | 8.0 | 0.00 | 0.00 | 0.00 | 68 | 1015.3 |
| 20260502090504 | 16 | 176 | 4.8 | 8.0 | 0.00 | 0.00 | 0.00 | 69 | 1015.3 |
| 20260502071525 | 12 | 224 | 1.6 | 12.9 | 0.00 | 0.00 | 0.00 | 82 | 1015.3 |
| 20260502071004 | 12 | 229 | 1.6 | 11.3 | 0.00 | 0.00 | 0.00 | 83 | 1015.4 |
| 20260502070503 | 12 | 236 | 1.6 | 8.0 | 0.00 | 0.00 | 0.00 | 84 | 1015.4 |
| 20260502070004 | 11 | 243 | 1.6 | 6.4 | 0.00 | 0.00 | 0.00 | 85 | 1015.4 |
| 20260502065504 | 11 | 244 | 1.6 | 6.4 | 0.00 | 0.00 | 0.00 | 86 | 1015.5 |
| 20260502065004 | 11 | 244 | 1.6 | 8.0 | 0.00 | 0.00 | 0.00 | 86 | 1015.5 |
| 20260502064503 | 11 | 236 | 1.6 | 8.0 | 0.00 | 0.00 | 0.00 | 86 | 1015.5 |
| 20260502064004 | 10 | 226 | 1.6 | 4.8 | 0.00 | 0.00 | 0.00 | 87 | 1015.5 |
| 20260502063503 | 10 | 224 | 1.6 | 4.8 | 0.00 | 0.00 | 0.00 | 87 | 1015.6 |
| 20260502063003 | 10 | 223 | 0.0 | 4.8 | 0.00 | 0.00 | 0.00 | 86 | 1015.6 |
| 20260502062504 | 10 | 208 | 0.0 | 4.8 | 0.00 | 0.00 | 0.00 | 86 | 1015.5 |
| 20260502062004 | 10 | 170 | 0.0 | 6.4 | 0.00 | 0.00 | 0.00 | 86 | 1015.5 |
| 20260502061503 | 10 | 197 | 1.6 | 6.4 | 0.00 | 0.00 | 0.00 | 86 | 1015.5 |
| 20260502061025 | 10 | 215 | 1.6 | 6.4 | 0.00 | 0.00 | 0.00 | 86 | 1015.4 |
| 20260502060524 | 10 | 218 | 0.0 | 6.4 | 0.00 | 0.00 | 0.00 | 86 | 1015.4 |
| 20260502060003 | 10 | 222 | 1.6 | 4.8 | 0.00 | 0.00 | 0.00 | 86 | 1015.4 |
| 20260502055503 | 10 | 234 | 1.6 | 8.0 | 0.00 | 0.00 | 0.00 | 86 | 1015.5 |
| 20260502055004 | 10 | 231 | 1.6 | 8.0 | 0.00 | 0.00 | 0.00 | 86 | 1015.5 |
| 20260502054503 | 10 | 223 | 1.6 | 8.0 | 0.00 | 0.00 | 0.00 | 86 | 1015.5 |
| 20260502054004 | 10 | 214 | 1.6 | 8.0 | 0.00 | 0.00 | 0.00 | 86 | 1015.4 |
| 20260502053504 | 10 | 212 | 1.6 | 6.4 | 0.00 | 0.00 | 0.00 | 86 | 1015.4 |
| 20260502053003 | 10 | 226 | 1.6 | 6.4 | 0.00 | 0.00 | 0.00 | 86 | 1015.5 |
| 20260502052503 | 10 | 224 | 1.6 | 4.8 | 0.00 | 0.00 | 0.00 | 86 | 1015.5 |
| 20260502052003 | 10 | 215 | 1.6 | 6.4 | 0.00 | 0.00 | 0.00 | 86 | 1015.5 |
| 20260502051504 | 10 | 207 | 1.6 | 6.4 | 0.00 | 0.00 | 0.00 | 86 | 1015.5 |
| 20260502051004 | 10 | 209 | 1.6 | 6.4 | 0.00 | 0.00 | 0.00 | 86 | 1015.5 |
| 20260502050525 | 10 | 216 | 1.6 | 6.4 | 0.00 | 0.00 | 0.00 | 86 | 1015.6 |
| 20260502050004 | 10 | 221 | 1.6 | 6.4 | 0.00 | 0.00 | 0.00 | 86 | 1015.5 |
| 20260502045525 | 9 | 222 | 1.6 | 6.4 | 0.00 | 0.00 | 0.00 | 86 | 1015.5 |
| 20260502045004 | 9 | 217 | 1.6 | 6.4 | 0.00 | 0.00 | 0.00 | 86 | 1015.6 |
| 20260502044503 | 10 | 211 | 0.0 | 6.4 | 0.00 | 0.00 | 0.00 | 85 | 1015.6 |
| 20260502044003 | 10 | 0 | 1.6 | 1.6 | 0.00 | 0.00 | 0.00 | 85 | 1015.7 |
| 20260502043503 | 10 | 0 | 4.8 | 4.8 | 0.00 | 0.00 | 0.00 | 85 | 1015.6 |
| 20260502043025 | 10 | 0 | 4.8 | 4.8 | 0.00 | 0.00 | 0.00 | 85 | 1015.6 |
| 20260502042503 | 10 | 0 | 0.0 | 4.8 | 0.00 | 0.00 | 0.00 | 84 | 1015.6 |
| 20260502042003 | 10 | 206 | 0.0 | 4.8 | 0.00 | 0.00 | 0.00 | 83 | 1015.6 |
| 20260502041524 | 10 | 211 | 0.0 | 4.8 | 0.00 | 0.00 | 0.00 | 83 | 1015.6 |
| 20260502041004 | 10 | 236 | 1.6 | 1.6 | 0.00 | 0.00 | 0.00 | 83 | 1015.6 |
| 20260502040504 | 10 | 235 | 1.6 | 4.8 | 0.00 | 0.00 | 0.00 | 83 | 1015.6 |
| 20260502040025 | 10 | 229 | 1.6 | 4.8 | 0.00 | 0.00 | 0.00 | 83 | 1015.5 |
| 20260502035504 | 10 | 0 | 0.0 | 4.8 | 0.00 | 0.00 | 0.00 | 82 | 1015.6 |
| 20260502035003 | 11 | 227 | 0.0 | 4.8 | 0.00 | 0.00 | 0.00 | 82 | 1015.7 |
| 20260502034504 | 11 | 214 | 1.6 | 6.4 | 0.00 | 0.00 | 0.00 | 82 | 1015.6 |
| 20260502034003 | 11 | 205 | 1.6 | 6.4 | 0.00 | 0.00 | 0.00 | 82 | 1015.5 |
| 20260502033503 | 11 | 209 | 0.0 | 6.4 | 0.00 | 0.00 | 0.00 | 82 | 1015.5 |
| 20260502033004 | 11 | 0 | 6.4 | 6.4 | 0.00 | 0.00 | 0.00 | 82 | 1015.5 |
| 20260502032525 | 11 | 0 | 4.8 | 4.8 | 0.00 | 0.00 | 0.00 | 82 | 1015.6 |
| 20260502032004 | 11 | 0 | 4.8 | 4.8 | 0.00 | 0.00 | 0.00 | 81 | 1015.7 |
| 20260502031504 | 11 | 0 | 6.4 | 6.4 | 0.00 | 0.00 | 0.00 | 81 | 1015.6 |
| 20260502031003 | 11 | 0 | 6.4 | 6.4 | 0.00 | 0.00 | 0.00 | 81 | 1015.7 |
| 20260502030504 | 11 | 0 | 0.0 | 8.0 | 0.00 | 0.00 | 0.00 | 81 | 1015.7 |
| 20260502030025 | 11 | 0 | 0.0 | 8.0 | 0.00 | 0.00 | 0.00 | 80 | 1015.8 |
| 20260502025503 | 11 | 0 | 0.0 | 4.8 | 0.00 | 0.00 | 0.00 | 81 | 1015.8 |
| 20260502025025 | 11 | 0 | 0.0 | 4.8 | 0.00 | 0.00 | 0.00 | 81 | 1015.7 |
| 20260502024503 | 12 | 0 | 0.0 | 4.8 | 0.00 | 0.00 | 0.00 | 80 | 1015.8 |
| 20260502024003 | 12 | 0 | 0.0 | 4.8 | 0.00 | 0.00 | 0.00 | 80 | 1015.8 |
| 20260502023503 | 12 | 0 | 0.0 | 1.6 | 0.00 | 0.00 | 0.00 | 80 | 1015.8 |
| 20260502023003 | 12 | 0 | 0.0 | 4.8 | 0.00 | 0.00 | 0.00 | 80 | 1015.8 |
| 20260502022503 | 12 | 0 | 0.0 | 4.8 | 0.00 | 0.00 | 0.00 | 80 | 1015.9 |
| 20260502022003 | 12 | 157 | 0.0 | 4.8 | 0.00 | 0.00 | 0.00 | 80 | 1015.9 |
| 20260502021525 | 12 | 155 | 0.0 | 4.8 | 0.00 | 0.00 | 0.00 | 80 | 1015.9 |
| 20260502021004 | 12 | 197 | 1.6 | 6.4 | 0.00 | 0.00 | 0.00 | 80 | 1016.0 |
| 20260502020504 | 12 | 239 | 1.6 | 6.4 | 0.00 | 0.00 | 0.00 | 80 | 1016.0 |
| 20260502020003 | 12 | 237 | 1.6 | 6.4 | 0.00 | 0.00 | 0.00 | 80 | 1016.0 |
| 20260502015503 | 12 | 0 | 6.4 | 6.4 | 0.00 | 0.00 | 0.00 | 80 | 1016.0 |
| 20260502015024 | 12 | 0 | 4.8 | 4.8 | 0.00 | 0.00 | 0.00 | 80 | 1016.1 |
| 20260502014504 | 12 | 0 | 6.4 | 6.4 | 0.00 | 0.00 | 0.00 | 81 | 1016.2 |
| 20260502014003 | 12 | 0 | 6.4 | 6.4 | 0.00 | 0.00 | 0.00 | 81 | 1016.2 |
| 20260502013503 | 12 | 0 | 4.8 | 4.8 | 0.00 | 0.00 | 0.00 | 81 | 1016.3 |
| 20260502013003 | 12 | 0 | 6.4 | 6.4 | 0.00 | 0.00 | 0.00 | 80 | 1016.3 |
| 20260502012503 | 12 | 0 | 6.4 | 6.4 | 0.00 | 0.00 | 0.00 | 80 | 1016.4 |
| 20260502012004 | 12 | 0 | 4.8 | 4.8 | 0.00 | 0.00 | 0.00 | 80 | 1016.4 |
| 20260502011525 | 12 | 0 | 4.8 | 4.8 | 0.00 | 0.00 | 0.00 | 80 | 1016.4 |
| 20260502011003 | 13 | 0 | 4.8 | 4.8 | 0.00 | 0.00 | 0.00 | 81 | 1016.4 |
| 20260502010503 | 13 | 0 | 4.8 | 4.8 | 0.00 | 0.00 | 0.00 | 81 | 1016.5 |
| 20260502010003 | 13 | 0 | 1.6 | 1.6 | 0.00 | 0.00 | 0.00 | 81 | 1016.5 |
| 20260502005504 | 13 | 0 | 1.6 | 1.6 | 0.00 | 0.00 | 0.00 | 81 | 1016.6 |
| 20260502005003 | 13 | 0 | 1.6 | 1.6 | 0.00 | 0.00 | 0.00 | 81 | 1016.5 |
| 20260502004504 | 13 | 0 | 1.6 | 1.6 | 0.00 | 0.00 | 0.00 | 81 | 1016.6 |
| 20260502004004 | 13 | 0 | 1.6 | 1.6 | 0.00 | 0.00 | 0.00 | 81 | 1016.7 |
| 20260502003504 | 13 | 0 | 4.8 | 4.8 | 0.00 | 0.00 | 0.00 | 81 | 1016.6 |
| 20260502003003 | 13 | 0 | 4.8 | 4.8 | 0.00 | 0.00 | 0.00 | 81 | 1016.6 |
| 20260502002504 | 13 | 0 | 4.8 | 4.8 | 0.00 | 0.00 | 0.00 | 81 | 1016.6 |
| 20260502002004 | 13 | 0 | 0.0 | 4.8 | 0.00 | 0.00 | 0.00 | 81 | 1016.7 |
| 20260502001503 | 13 | 0 | 0.0 | 4.8 | 0.00 | 0.00 | 0.00 | 81 | 1016.6 |
| 20260502001003 | 13 | 133 | 0.0 | 4.8 | 0.00 | 0.00 | 0.00 | 81 | 1016.6 |
| 20260502000503 | 13 | 160 | 0.0 | 4.8 | 0.00 | 0.00 | 0.00 | 81 | 1016.7 |
| 20260502000004 | 13 | 108 | 1.6 | 8.0 | 0.00 | 0.00 | 0.00 | 80 | 1016.7 |
| 20260501235526 | 13 | 79 | 1.6 | 8.0 | 0.00 | 0.00 | 0.00 | 80 | 1016.8 |
| 20260501235003 | 13 | 86 | 1.6 | 8.0 | 0.00 | 0.00 | 0.00 | 80 | 1016.8 |
| 20260501234503 | 13 | 92 | 1.6 | 8.0 | 0.00 | 0.00 | 0.00 | 79 | 1016.8 |
| 20260501234004 | 13 | 89 | 1.6 | 6.4 | 0.00 | 0.00 | 0.00 | 79 | 1016.9 |
| 20260501233504 | 14 | 70 | 1.6 | 12.9 | 0.00 | 0.00 | 0.00 | 79 | 1016.9 |
| 20260501233025 | 14 | 63 | 1.6 | 12.9 | 0.00 | 0.00 | 0.00 | 79 | 1016.8 |
| 20260501232503 | 14 | 47 | 1.6 | 16.1 | 0.00 | 0.00 | 0.00 | 78 | 1016.7 |
| 20260501232004 | 14 | 45 | 1.6 | 16.1 | 0.00 | 0.00 | 0.00 | 77 | 1016.7 |
| 20260501231503 | 14 | 42 | 1.6 | 8.0 | 0.00 | 0.00 | 0.00 | 78 | 1016.8 |
| 20260501231025 | 14 | 0 | 0.0 | 6.4 | 0.00 | 0.00 | 0.00 | 78 | 1016.9 |
| 20260501230504 | 14 | 96 | 0.0 | 4.8 | 0.00 | 0.00 | 0.00 | 78 | 1016.9 |
| 20260501230004 | 14 | 85 | 0.0 | 4.8 | 0.00 | 0.00 | 0.00 | 78 | 1017.0 |
| 20260501225503 | 14 | 64 | 1.6 | 4.8 | 0.00 | 0.00 | 0.00 | 78 | 1016.9 |
| 20260501225003 | 14 | 64 | 1.6 | 4.8 | 0.00 | 0.00 | 0.00 | 78 | 1016.9 |
| 20260501224503 | 14 | 82 | 1.6 | 6.4 | 0.00 | 0.00 | 0.00 | 77 | 1016.9 |
| 20260501224024 | 14 | 115 | 0.0 | 6.4 | 0.00 | 0.00 | 0.00 | 77 | 1016.8 |
| 20260501223504 | 14 | 0 | 0.0 | 6.4 | 0.00 | 0.00 | 0.00 | 76 | 1016.8 |
| 20260501223003 | 14 | 0 | 0.0 | 6.4 | 0.00 | 0.00 | 0.00 | 76 | 1016.8 |
| 20260501222504 | 15 | 0 | 0.0 | 4.8 | 0.00 | 0.00 | 0.00 | 75 | 1016.9 |
| 20260501222003 | 15 | 0 | 0.0 | 4.8 | 0.00 | 0.00 | 0.00 | 75 | 1016.9 |
| 20260501221505 | 15 | 0 | 0.0 | 6.4 | 0.00 | 0.00 | 0.00 | 74 | 1016.8 |
| 20260501221004 | 15 | 0 | 0.0 | 6.4 | 0.00 | 0.00 | 0.00 | 74 | 1016.8 |
| 20260501220503 | 15 | 0 | 0.0 | 4.8 | 0.00 | 0.00 | 0.00 | 73 | 1016.8 |
| 20260501220003 | 15 | 53 | 0.0 | 6.4 | 0.00 | 0.00 | 0.00 | 73 | 1016.8 |
| 20260501215504 | 15 | 58 | 0.0 | 8.0 | 0.00 | 0.00 | 0.00 | 73 | 1016.8 |
| 20260501215005 | 15 | 55 | 1.6 | 8.0 | 0.00 | 0.00 | 0.00 | 72 | 1016.8 |
| 20260501214503 | 15 | 51 | 1.6 | 8.0 | 0.00 | 0.00 | 0.00 | 71 | 1016.8 |
| 20260501214004 | 15 | 40 | 1.6 | 8.0 | 0.00 | 0.00 | 0.00 | 71 | 1016.9 |
| 20260501213503 | 15 | 43 | 1.6 | 8.0 | 0.00 | 0.00 | 0.00 | 70 | 1017.0 |
| 20260501213003 | 15 | 62 | 1.6 | 8.0 | 0.00 | 0.00 | 0.00 | 70 | 1016.9 |
| 20260501212504 | 15 | 82 | 1.6 | 6.4 | 0.00 | 0.00 | 0.00 | 69 | 1016.9 |
| 20260501212003 | 15 | 81 | 1.6 | 4.8 | 0.00 | 0.00 | 0.00 | 69 | 1016.9 |
| 20260501211524 | 15 | 74 | 1.6 | 8.0 | 0.00 | 0.00 | 0.00 | 69 | 1016.9 |
| 20260501211003 | 15 | 73 | 1.6 | 12.9 | 0.00 | 0.00 | 0.00 | 69 | 1016.9 |
| 20260501210503 | 15 | 76 | 1.6 | 12.9 | 0.00 | 0.00 | 0.00 | 68 | 1017.0 |
| 20260501210004 | 15 | 62 | 1.6 | 12.9 | 0.00 | 0.00 | 0.00 | 67 | 1017.0 |
| 20260501205504 | 15 | 63 | 1.6 | 12.9 | 0.00 | 0.00 | 0.00 | 67 | 1016.9 |
| 20260501205024 | 15 | 67 | 1.6 | 8.0 | 0.00 | 0.00 | 0.00 | 66 | 1017.0 |
| 20260501204524 | 16 | 69 | 1.6 | 8.0 | 0.00 | 0.00 | 0.00 | 65 | 1017.0 |
| 20260501204003 | 16 | 68 | 3.2 | 8.0 | 0.00 | 0.00 | 0.00 | 64 | 1017.0 |
| 20260501203503 | 16 | 55 | 3.2 | 8.0 | 0.00 | 0.00 | 0.00 | 64 | 1017.1 |
| 20260501203003 | 16 | 55 | 1.6 | 8.0 | 0.00 | 0.00 | 0.00 | 63 | 1017.2 |
| 20260501202525 | 16 | 57 | 1.6 | 8.0 | 0.00 | 0.00 | 0.00 | 62 | 1017.2 |
| 20260501202003 | 16 | 59 | 1.6 | 11.3 | 0.00 | 0.00 | 0.00 | 61 | 1017.1 |
| 20260501201504 | 16 | 51 | 1.6 | 11.3 | 0.00 | 0.00 | 0.00 | 60 | 1017.1 |
| 20260501201003 | 16 | 51 | 1.6 | 8.0 | 0.00 | 0.00 | 0.00 | 60 | 1017.0 |
| 20260501200503 | 17 | 67 | 0.0 | 6.4 | 0.00 | 0.00 | 0.00 | 59 | 1017.0 |
| 20260501200003 | 17 | 0 | 6.4 | 6.4 | 0.00 | 0.00 | 0.00 | 59 | 1017.0 |
| 20260501195504 | 17 | 52 | 0.0 | 6.4 | 0.00 | 0.00 | 0.00 | 59 | 1017.0 |
| 20260501195004 | 17 | 59 | 0.0 | 8.0 | 0.00 | 0.00 | 0.00 | 58 | 1017.0 |
| 20260501194504 | 17 | 73 | 1.6 | 8.0 | 0.00 | 0.00 | 0.00 | 57 | 1017.0 |
| 20260501194003 | 17 | 52 | 1.6 | 8.0 | 0.00 | 0.00 | 0.00 | 57 | 1017.0 |
| 20260501193504 | 17 | 46 | 1.6 | 8.0 | 0.00 | 0.00 | 0.00 | 56 | 1016.9 |
| 20260501193004 | 17 | 59 | 1.6 | 8.0 | 0.00 | 0.00 | 0.00 | 56 | 1016.8 |
| 20260501192503 | 18 | 66 | 3.2 | 8.0 | 0.00 | 0.00 | 0.00 | 55 | 1016.7 |
| 20260501192004 | 18 | 64 | 3.2 | 8.0 | 0.00 | 0.00 | 0.00 | 54 | 1016.6 |
| 20260501191504 | 18 | 56 | 3.2 | 8.0 | 0.00 | 0.00 | 0.00 | 55 | 1016.6 |
| 20260501191004 | 18 | 55 | 1.6 | 11.3 | 0.00 | 0.00 | 0.00 | 55 | 1016.6 |
| 20260501190503 | 19 | 61 | 3.2 | 11.3 | 0.00 | 0.00 | 0.00 | 57 | 1016.5 |
| 20260501190003 | 19 | 42 | 3.2 | 11.3 | 0.00 | 0.00 | 0.00 | 57 | 1016.3 |
| 20260501185525 | 20 | 44 | 3.2 | 11.3 | 0.00 | 0.00 | 0.00 | 57 | 1016.2 |
| 20260501185003 | 20 | 46 | 3.2 | 11.3 | 0.00 | 0.00 | 0.00 | 56 | 1016.2 |
| 20260501184504 | 20 | 53 | 3.2 | 12.9 | 0.00 | 0.00 | 0.00 | 56 | 1016.2 |
| 20260501184003 | 20 | 67 | 3.2 | 12.9 | 0.00 | 0.00 | 0.00 | 56 | 1016.0 |
| 20260501183503 | 20 | 60 | 3.2 | 11.3 | 0.00 | 0.00 | 0.00 | 55 | 1016.0 |
| 20260501183006 | 21 | 51 | 4.8 | 11.3 | 0.00 | 0.00 | 0.00 | 54 | 1015.9 |
| 20260501182524 | 21 | 44 | 3.2 | 11.3 | 0.00 | 0.00 | 0.00 | 54 | 1015.9 |
| 20260501182003 | 21 | 46 | 3.2 | 12.9 | 0.00 | 0.00 | 0.00 | 54 | 1015.9 |
| 20260501181525 | 21 | 71 | 1.6 | 12.9 | 0.00 | 0.00 | 0.00 | 54 | 1015.9 |
| 20260501181026 | 22 | 113 | 1.6 | 11.3 | 0.00 | 0.00 | 0.00 | 54 | 1015.9 |
| 20260501180504 | 22 | 165 | 1.6 | 6.4 | 0.00 | 0.00 | 0.00 | 54 | 1015.8 |
| 20260501180003 | 22 | 205 | 1.6 | 16.1 | 0.00 | 0.00 | 0.00 | 54 | 1015.8 |
| 20260501175504 | 22 | 229 | 3.2 | 16.1 | 0.00 | 0.00 | 0.00 | 54 | 1015.8 |
| 20260501175004 | 22 | 229 | 3.2 | 16.1 | 0.00 | 0.00 | 0.00 | 53 | 1015.9 |
| 20260501174503 | 22 | 214 | 3.2 | 16.1 | 0.00 | 0.00 | 0.00 | 53 | 1015.8 |
| 20260501174005 | 22 | 205 | 1.6 | 12.9 | 0.00 | 0.00 | 0.00 | 53 | 1015.8 |
| 20260501173503 | 22 | 200 | 0.0 | 4.8 | 0.00 | 0.00 | 0.00 | 53 | 1015.8 |
| 20260501173003 | 22 | 0 | 0.0 | 4.8 | 0.00 | 0.00 | 0.00 | 52 | 1015.8 |
| 20260501172525 | 22 | 199 | 0.0 | 4.8 | 0.00 | 0.00 | 0.00 | 52 | 1015.7 |
| 20260501172003 | 22 | 200 | 1.6 | 4.8 | 0.00 | 0.00 | 0.00 | 51 | 1015.8 |
| 20260501171504 | 22 | 221 | 3.2 | 6.4 | 0.00 | 0.00 | 0.00 | 50 | 1015.9 |
| 20260501171003 | 22 | 207 | 3.2 | 8.0 | 0.00 | 0.00 | 0.00 | 49 | 1015.9 |
| 20260501170504 | 23 | 207 | 4.8 | 16.1 | 0.00 | 0.00 | 0.00 | 49 | 1015.9 |
| 20260501170004 | 23 | 208 | 4.8 | 16.1 | 0.00 | 0.00 | 0.00 | 48 | 1015.9 |
| 20260501165505 | 23 | 201 | 4.8 | 16.1 | 0.00 | 0.00 | 0.00 | 47 | 1015.9 |
| 20260501165004 | 23 | 189 | 4.8 | 16.1 | 0.00 | 0.00 | 0.00 | 46 | 1015.9 |
| 20260501164525 | 23 | 172 | 4.8 | 16.1 | 0.00 | 0.00 | 0.00 | 47 | 1015.9 |
| 20260501164004 | 23 | 207 | 4.8 | 12.9 | 0.00 | 0.00 | 0.00 | 45 | 1016.0 |
| 20260501163505 | 23 | 211 | 4.8 | 12.9 | 0.00 | 0.00 | 0.00 | 45 | 1016.0 |
| 20260501163004 | 23 | 196 | 4.8 | 16.1 | 0.00 | 0.00 | 0.00 | 45 | 1015.9 |
| 20260501162504 | 23 | 187 | 4.8 | 16.1 | 0.00 | 0.00 | 0.00 | 44 | 1015.9 |
| 20260501162004 | 24 | 193 | 4.8 | 12.9 | 0.00 | 0.00 | 0.00 | 44 | 1016.0 |
| 20260501161504 | 24 | 197 | 4.8 | 16.1 | 0.00 | 0.00 | 0.00 | 43 | 1015.9 |
| 20260501161004 | 24 | 197 | 4.8 | 17.7 | 0.00 | 0.00 | 0.00 | 43 | 1016.0 |